EW0349 Weather Reports


time (UTC)temp
F
wind
direction
speed
knots
gust
knots
rain 1hr
in
rain 24hr
in
rain mn
in
humidity
%
barometer
mb
20260509213005 73 50 0.9 2.6 0.00 0.00 0.00 48 1017.0
20260509211501 72 82 0.9 3.5 0.00 0.00 0.00 50 1017.1
20260509210056 71 22 1.7 3.5 0.00 0.00 0.00 54 1017.2
20260509204555 69 32 0.9 4.3 0.00 0.00 0.00 57 1017.3
20260509203047 69 103 0.9 4.3 0.00 0.00 0.00 53 1017.5
20260509201553 69 244 1.7 4.3 0.00 0.00 0.00 58 1017.7
20260509200050 69 302 0.9 6.1 0.00 0.00 0.00 58 1017.7
20260509194534 69 14 1.7 6.1 0.00 0.00 0.00 58 1018.0
20260509193036 67 319 0.9 2.6 0.00 0.00 0.00 60 1018.1
20260509191526 67 22 2.6 7.0 0.00 0.00 0.00 61 1018.3
20260509190023 67 24 1.7 5.2 0.00 0.00 0.00 59 1018.6
20260509184520 66 277 0.9 6.1 0.00 0.00 0.00 61 1018.7
20260509183012 65 305 0.9 4.3 0.00 0.00 0.00 60 1018.8
20260509181507 64 42 0.9 6.1 0.00 0.00 0.00 61 1019.0
20260509180002 63 17 0.0 3.5 0.00 0.00 0.00 62 1019.0
20260509174602 62 83 1.7 4.3 0.00 0.00 0.00 62 1019.2
20260509173106 61 21 0.9 5.2 0.00 0.00 0.00 63 1019.2
20260509171612 60 17 0.9 3.5 0.00 0.00 0.00 62 1019.3
20260509170046 59 120 1.7 4.3 0.00 0.00 0.00 63 1019.6
20260509164541 58 20 0.0 3.5 0.00 0.00 0.00 62 1019.7
20260509163037 57 57 0.9 2.6 0.00 0.00 0.00 62 1020.0
20260509161535 56 42 0.9 2.6 0.00 0.00 0.00 60 1020.2
20260509160028 56 34 0.0 2.6 0.00 0.00 0.00 59 1020.2
20260509154524 55 66 0.0 2.6 0.00 0.00 0.00 54 1020.3
20260509153021 54 69 0.9 2.6 0.00 0.00 0.00 49 1020.5
20260509151514 53 61 0.9 3.5 0.00 0.00 0.00 45 1020.8
20260509150010 52 360 0.0 4.3 0.00 0.00 0.00 37 1020.9
20260509144506 51 293 0.9 2.6 0.00 0.00 0.00 19 1020.9
20260509143003 49 282 0.0 1.7 0.00 0.00 0.00 100 1020.6
20260509141557 47 281 0.0 0.0 0.00 0.00 0.00 100 1020.7
20260509140052 45 281 0.0 0.9 0.00 0.00 0.00 100 1020.7
20260509134549 44 282 0.0 0.0 0.00 0.00 0.00 4 1020.7
20260509133047 43 282 0.0 0.9 0.00 0.00 0.00 11 1020.7
20260509131542 43 282 0.0 0.9 0.00 0.00 0.00 14 1020.6
20260509130037 43 281 0.0 0.0 0.00 0.00 0.00 16 1020.6
20260509124547 43 281 0.0 0.9 0.00 0.00 0.00 17 1020.8
20260509123031 44 281 0.0 0.9 0.00 0.00 0.00 18 1020.8
20260509121533 44 281 0.0 0.9 0.00 0.00 0.00 21 1020.9
20260509120027 45 281 0.0 0.0 0.00 0.00 0.00 20 1020.9
20260509114525 45 281 0.0 0.0 0.00 0.00 0.00 22 1021.0
20260509113024 45 281 0.0 0.0 0.00 0.00 0.00 22 1021.0
20260509111523 45 281 0.0 0.0 0.00 0.00 0.00 23 1020.9
20260509110019 46 281 0.0 0.0 0.00 0.00 0.00 25 1021.1
20260509104529 46 281 0.0 0.0 0.00 0.00 0.00 25 1021.2
20260509103016 46 281 0.0 0.9 0.00 0.00 0.00 26 1021.3
20260509101517 47 281 0.0 0.0 0.00 0.00 0.00 29 1021.3
20260509100024 47 281 0.0 0.0 0.00 0.00 0.00 34 1021.3
20260509094517 47 281 0.0 0.0 0.00 0.00 0.00 35 1021.4
20260509093007 48 281 0.0 0.0 0.00 0.00 0.00 37 1021.4
20260509091505 48 281 0.0 0.0 0.00 0.00 0.00 39 1021.5
20260509090002 49 281 0.0 0.0 0.00 0.00 0.00 42 1021.5
20260509084602 49 281 0.0 0.0 0.00 0.00 0.00 44 1021.6
20260509083056 49 281 0.0 0.0 0.00 0.00 0.00 48 1021.7
20260509081553 50 281 0.0 0.0 0.00 0.00 0.00 52 1021.9
20260509080056 51 281 0.0 0.0 0.00 0.00 0.00 56 1021.8
20260509074548 51 281 0.0 0.0 0.00 0.00 0.00 58 1021.8
20260509073051 52 281 0.0 0.0 0.00 0.00 0.00 60 1021.9
20260509071552 53 281 0.0 0.0 0.00 0.00 0.00 63 1021.9
20260509070042 53 281 0.0 1.7 0.00 0.00 0.00 65 1021.9
20260509064540 54 281 0.0 0.0 0.00 0.00 0.00 66 1021.9
20260509063041 54 281 0.0 0.9 0.00 0.00 0.00 67 1021.9
20260509061547 55 281 0.0 0.9 0.00 0.00 0.00 69 1021.9
20260509060039 55 281 0.0 1.7 0.00 0.00 0.00 69 1021.9
20260509054548 56 281 0.0 1.7 0.00 0.00 0.00 69 1022.1
20260509053038 57 273 0.0 3.5 0.00 0.00 0.00 69 1021.9
20260509051539 57 250 0.9 3.5 0.00 0.00 0.00 68 1021.8
20260509050049 58 216 0.9 3.5 0.00 0.00 0.00 68 1021.7
20260509044545 58 183 0.0 2.6 0.00 0.00 0.00 68 1021.7
20260509043036 58 182 0.0 0.9 0.00 0.00 0.00 68 1021.6
20260509041536 59 184 0.0 1.7 0.00 0.00 0.00 68 1021.3
20260509040038 59 225 0.0 1.7 0.00 0.00 0.00 67 1021.3
20260509034540 60 256 0.0 3.5 0.00 0.00 0.00 67 1021.2
20260509033035 60 295 0.0 2.6 0.00 0.00 0.00 66 1021.1
20260509031535 61 289 0.0 2.6 0.00 0.00 0.00 65 1021.0
20260509030035 62 299 0.0 4.3 0.00 0.00 0.00 64 1020.8
20260509024533 63 284 0.9 3.5 0.00 0.00 0.00 61 1020.7
20260509023038 64 288 0.9 2.6 0.00 0.00 0.00 59 1020.6
20260509021533 65 273 0.0 4.3 0.00 0.00 0.00 58 1020.6
20260509020031 66 299 0.0 2.6 0.00 0.00 0.00 56 1020.6
20260509014531 65 302 0.9 4.3 0.00 0.00 0.00 57 1020.7
20260509013045 66 265 0.9 3.5 0.00 0.00 0.00 55 1020.8
20260509011533 67 284 0.9 5.2 0.00 0.00 0.00 55 1020.8
20260509010030 67 313 0.0 2.6 0.00 0.00 0.00 56 1021.0
20260509004532 66 272 1.7 4.3 0.00 0.00 0.00 55 1021.1
20260509003032 66 278 1.7 7.0 0.00 0.00 0.00 54 1021.1
20260509001528 67 276 0.9 7.0 0.00 0.00 0.00 53 1021.1
20260509000027 66 226 0.0 7.0 0.00 0.00 0.00 53 1021.1
20260508234527 67 274 2.6 5.2 0.00 0.00 0.00 51 1021.2
20260508233026 67 223 0.0 3.5 0.00 0.00 0.00 51 1021.3
20260508231525 66 292 0.9 4.3 0.00 0.00 0.00 53 1021.1
20260508230045 66 17 0.0 3.5 0.00 0.00 0.00 55 1021.3
20260508224551 67 287 1.7 5.2 0.00 0.00 0.00 53 1021.3
20260508223030 65 291 1.7 4.3 0.00 0.00 0.00 53 1021.4
20260508221520 65 148 1.7 4.3 0.00 0.00 0.00 54 1021.5
20260508220018 64 207 0.9 6.1 0.00 0.00 0.00 55 1021.6
20260508214517 64 202 0.9 6.1 0.00 0.00 0.00 54 1021.7